AIC255 VABB-YMML

Flight info

Callsign AIC255
Flight time N/A
Altitude 35000
Route VEVAK2A EPKOS B211 MMV L896 ADKIT/N0496F370 L896 ELDEM/N0489F390 L896 SAPDA DCT 15S114E 20S119E 21S120E 25S125E/N0483F410 28S130E 30S135E 32S140E DCT NATYA H119 ARBEY
Aircraft A359/H-SDE2E3GHIJ3J4J5LM1ORWXY/LB1D1

Departure

Time 2026-05-05 15:36
Airport Chhatrapati Shivaji Maharaj International Airport (VABB)

Arrival

Time N/A
Airport Melbourne Airport (YMML)
Time Latitude Longitude Altitude Speed Heading
2026-05-05 15:27 19.09518 72.87419 39 ft 0 kts 342°
2026-05-05 15:27 19.09513 72.87421 39 ft 3 kts 342°
2026-05-05 15:28 19.09498 72.87426 37 ft 3 kts 342°
2026-05-05 15:28 19.09481 72.87432 37 ft 3 kts 346°
2026-05-05 15:28 19.09463 72.87435 37 ft 3 kts
2026-05-05 15:28 19.09445 72.87431 35 ft 3 kts 25°
2026-05-05 15:29 19.09429 72.87422 39 ft 2 kts 27°
2026-05-05 15:29 19.09421 72.87418 38 ft 0 kts 28°
2026-05-05 15:31 19.09423 72.87420 39 ft 1 kts 36°
2026-05-05 15:31 19.09431 72.87438 38 ft 3 kts 79°
2026-05-05 15:31 19.09418 72.87476 39 ft 8 kts 124°
2026-05-05 15:32 19.09372 72.87536 39 ft 12 kts 129°
2026-05-05 15:32 19.09319 72.87604 39 ft 12 kts 130°
2026-05-05 15:32 19.09252 72.87660 39 ft 12 kts 162°
2026-05-05 15:32 19.09168 72.87683 39 ft 12 kts 145°
2026-05-05 15:33 19.09136 72.87764 39 ft 12 kts 109°
2026-05-05 15:33 19.09080 72.87808 39 ft 8 kts 174°
2026-05-05 15:33 19.09019 72.87808 38 ft 9 kts 180°
2026-05-05 15:33 19.08949 72.87807 37 ft 11 kts 180°
2026-05-05 15:34 19.08888 72.87783 37 ft 8 kts 244°
2026-05-05 15:34 19.08884 72.87730 36 ft 0 kts 270°
2026-05-05 15:35 19.08884 72.87693 36 ft 25 kts 270°
2026-05-05 15:35 19.08881 72.87351 39 ft 81 kts 269°
2026-05-05 15:35 19.08879 72.87231 39 ft 92 kts 269°
2026-05-05 15:36 19.08866 72.86416 36 ft 143 kts 269°
2026-05-05 15:36 19.08842 72.85177 264 ft 172 kts 269°
2026-05-05 15:36 19.08822 72.83949 981 ft 164 kts 270°
2026-05-05 15:36 19.08824 72.82755 1390 ft 175 kts 271°
2026-05-05 15:37 19.08819 72.81398 1566 ft 195 kts 269°
2026-05-05 15:37 19.08799 72.79876 1746 ft 216 kts 269°
2026-05-05 15:37 19.08764 72.78209 1976 ft 236 kts 268°
2026-05-05 15:37 19.08401 72.76471 2297 ft 251 kts 242°
2026-05-05 15:38 19.07171 72.75193 2816 ft 258 kts 207°
2026-05-05 15:38 19.05405 72.74795 3395 ft 264 kts 183°
2026-05-05 15:38 19.03547 72.74804 3927 ft 269 kts 181°
2026-05-05 15:38 19.01665 72.74828 4489 ft 272 kts 181°
2026-05-05 15:39 18.99763 72.74823 5051 ft 274 kts 182°
2026-05-05 15:39 18.97851 72.74797 5629 ft 276 kts 182°
2026-05-05 15:39 18.95925 72.74759 6186 ft 277 kts 182°
2026-05-05 15:39 18.93984 72.74715 6745 ft 279 kts 182°
2026-05-05 15:40 18.93344 72.74700 6926 ft 280 kts 182°
2026-05-05 15:40 18.91768 72.74661 7372 ft 282 kts 182°
2026-05-05 15:40 18.89797 72.74610 7917 ft 285 kts 183°
2026-05-05 15:40 18.87827 72.74557 8444 ft 288 kts 182°
2026-05-05 15:41 18.85810 72.74504 8787 ft 290 kts 182°
2026-05-05 15:41 18.83786 72.74451 8853 ft 291 kts 182°
2026-05-05 15:41 18.81766 72.74397 8863 ft 292 kts 182°
2026-05-05 15:41 18.79726 72.74342 8870 ft 292 kts 182°
2026-05-05 15:42 18.77692 72.74400 8860 ft 294 kts 172°
2026-05-05 15:42 18.75709 72.74943 9024 ft 295 kts 163°
2026-05-05 15:42 18.73752 72.75632 9458 ft 298 kts 162°
2026-05-05 15:42 18.71780 72.76331 10052 ft 300 kts 162°
2026-05-05 15:43 18.69757 72.77042 10317 ft 314 kts 162°
2026-05-05 15:43 18.67628 72.77786 10535 ft 329 kts 162°
2026-05-05 15:43 18.65402 72.78562 10756 ft 343 kts 162°
2026-05-05 15:43 18.63087 72.79367 10965 ft 356 kts 162°
2026-05-05 15:44 18.60700 72.80197 11174 ft 368 kts 162°
2026-05-05 15:44 18.58233 72.81054 11392 ft 379 kts 162°
2026-05-05 15:44 18.55716 72.81927 11682 ft 385 kts 162°
2026-05-05 15:44 18.53151 72.82817 12070 ft 389 kts 162°
2026-05-05 15:45 18.50557 72.83718 12474 ft 392 kts 162°
2026-05-05 15:45 18.47987 72.84609 12887 ft 395 kts 162°
2026-05-05 15:45 18.45367 72.85518 13296 ft 398 kts 162°
2026-05-05 15:45 18.42721 72.86435 13722 ft 401 kts 162°
2026-05-05 15:46 18.40060 72.87357 14064 ft 404 kts 162°
2026-05-05 15:46 18.37383 72.88283 14411 ft 407 kts 162°
2026-05-05 15:46 18.34681 72.89219 14793 ft 409 kts 162°
2026-05-05 15:46 18.31972 72.90156 15159 ft 412 kts 162°
2026-05-05 15:47 18.29247 72.91099 15523 ft 414 kts 162°
2026-05-05 15:47 18.27425 72.91729 15767 ft 416 kts 161°
2026-05-05 15:47 18.23728 72.93008 16241 ft 419 kts 161°
2026-05-05 15:47 18.20956 72.93966 16622 ft 422 kts 161°
2026-05-05 15:48 18.18153 72.94934 17001 ft 424 kts 161°
2026-05-05 15:48 18.15340 72.95906 17362 ft 426 kts 161°
2026-05-05 15:48 18.12507 72.96888 17741 ft 429 kts 161°
2026-05-05 15:48 18.09730 72.98054 18070 ft 431 kts 153°
2026-05-05 15:49 18.07175 72.99707 18382 ft 433 kts 142°
2026-05-05 15:49 18.04878 73.01761 18677 ft 435 kts 137°
2026-05-05 15:49 18.02668 73.03889 18936 ft 438 kts 136°
2026-05-05 15:49 18.00390 73.06088 19231 ft 440 kts 137°
2026-05-05 15:50 17.98147 73.08243 19503 ft 443 kts 137°
2026-05-05 15:50 17.95865 73.10429 19789 ft 446 kts 137°
2026-05-05 15:50 17.93556 73.12637 20052 ft 448 kts 137°
2026-05-05 15:50 17.91246 73.14844 20321 ft 451 kts 137°
2026-05-05 15:51 17.88913 73.17069 20584 ft 453 kts 137°
2026-05-05 15:51 17.86574 73.19300 20847 ft 456 kts 137°
2026-05-05 15:51 17.84222 73.21541 21104 ft 458 kts 137°
2026-05-05 15:51 17.81853 73.23798 21354 ft 461 kts 137°
2026-05-05 15:52 17.79467 73.26070 21614 ft 463 kts 137°
2026-05-05 15:52 17.77071 73.28351 21884 ft 466 kts 137°
2026-05-05 15:52 17.74665 73.30640 22140 ft 468 kts 137°
2026-05-05 15:52 17.72276 73.32912 22397 ft 470 kts 137°
2026-05-05 15:53 17.69840 73.35229 22631 ft 473 kts 137°
2026-05-05 15:53 17.67392 73.37555 22907 ft 475 kts 137°
2026-05-05 15:53 17.64944 73.39881 23184 ft 477 kts 137°
2026-05-05 15:53 17.62474 73.42227 23450 ft 479 kts 137°
2026-05-05 15:54 17.59993 73.44582 23669 ft 481 kts 137°
2026-05-05 15:54 17.57508 73.46940 23902 ft 483 kts 137°
2026-05-05 15:54 17.55012 73.49308 24141 ft 484 kts 137°
2026-05-05 15:54 17.52509 73.51682 24390 ft 485 kts 137°
2026-05-05 15:55 17.50005 73.54055 24661 ft 486 kts 137°
2026-05-05 15:55 17.47522 73.56408 24925 ft 488 kts 137°
2026-05-05 15:55 17.45006 73.58791 25206 ft 489 kts 138°
2026-05-05 15:55 17.42470 73.61192 25476 ft 491 kts 138°
2026-05-05 15:56 17.39935 73.63591 25768 ft 492 kts 138°
2026-05-05 15:56 17.37392 73.65997 26055 ft 494 kts 138°
2026-05-05 15:56 17.34835 73.68415 26344 ft 496 kts 138°
2026-05-05 15:56 17.32275 73.70834 26654 ft 497 kts 138°
2026-05-05 15:57 17.29691 73.73277 26940 ft 500 kts 138°
2026-05-05 15:57 17.27104 73.75720 27227 ft 502 kts 139°
2026-05-05 15:57 17.24503 73.78176 27519 ft 505 kts 139°
2026-05-05 15:57 17.21887 73.80644 27826 ft 507 kts 139°
2026-05-05 15:58 17.19256 73.83126 28120 ft 509 kts 139°
2026-05-05 15:58 17.16615 73.85616 28407 ft 512 kts 139°
2026-05-05 15:58 17.13971 73.88109 28710 ft 514 kts 139°
2026-05-05 15:58 17.11341 73.90588 28974 ft 516 kts 139°
2026-05-05 15:59 17.08663 73.93111 29271 ft 517 kts 139°
2026-05-05 15:59 17.05989 73.95628 29559 ft 519 kts 139°
2026-05-05 15:59 17.03312 73.98147 29822 ft 520 kts 139°
2026-05-05 15:59 17.00606 74.00693 30068 ft 522 kts 139°
2026-05-05 16:00 16.97899 74.03239 30284 ft 524 kts 139°
2026-05-05 16:00 16.95186 74.05790 30540 ft 524 kts 139°
2026-05-05 16:00 16.92484 74.08329 30880 ft 522 kts 139°
2026-05-05 16:00 16.89831 74.10906 31186 ft 521 kts 135°
2026-05-05 16:01 16.87491 74.13804 31469 ft 521 kts 126°
2026-05-05 16:01 16.85445 74.16921 31789 ft 520 kts 124°
2026-05-05 16:01 16.83503 74.20059 32113 ft 519 kts 123°
2026-05-05 16:01 16.81586 74.23236 32416 ft 517 kts 122°
2026-05-05 16:02 16.79671 74.26428 32715 ft 516 kts 122°
2026-05-05 16:02 16.77763 74.29597 33006 ft 515 kts 122°
2026-05-05 16:02 16.75848 74.32756 33290 ft 514 kts 123°
2026-05-05 16:02 16.73930 74.35902 33558 ft 513 kts 123°
2026-05-05 16:03 16.72010 74.39038 33818 ft 513 kts 123°
2026-05-05 16:03 16.70087 74.42170 34051 ft 512 kts 123°
2026-05-05 16:03 16.68164 74.45299 34254 ft 512 kts 123°
2026-05-05 16:03 16.66266 74.48385 34450 ft 511 kts 123°
2026-05-05 16:04 16.64349 74.51503 34660 ft 510 kts 123°
2026-05-05 16:04 16.62431 74.54620 34867 ft 510 kts 123°
2026-05-05 16:04 16.60514 74.57734 34941 ft 512 kts 123°
2026-05-05 16:05 16.56633 74.64038 34939 ft 516 kts 123°
2026-05-05 16:05 16.52748 74.70342 34940 ft 515 kts 123°
2026-05-05 16:06 16.48898 74.76584 34934 ft 515 kts 123°
2026-05-05 16:06 16.45666 74.81794 34938 ft 514 kts 123°
2026-05-05 16:07 16.41737 74.88023 34935 ft 514 kts 123°
2026-05-05 16:07 16.37804 74.94254 34937 ft 514 kts 123°
2026-05-05 16:08 16.33243 75.01498 34931 ft 514 kts 123°
2026-05-05 16:08 16.29953 75.06723 34933 ft 514 kts 123°
2026-05-05 16:09 16.26062 75.12901 34928 ft 514 kts 123°
2026-05-05 16:09 16.22140 75.19122 34925 ft 514 kts 123°
2026-05-05 16:10 16.18216 75.25340 34923 ft 514 kts 123°
2026-05-05 16:10 16.14289 75.31558 34927 ft 513 kts 124°
2026-05-05 16:11 16.10364 75.37768 34925 ft 513 kts 124°
2026-05-05 16:12 16.02520 75.50160 34918 ft 513 kts 124°
2026-05-05 16:13 15.92726 75.65603 34914 ft 513 kts 124°
2026-05-05 16:13 15.88793 75.71795 34916 ft 513 kts 124°
2026-05-05 16:14 15.80912 75.84190 34909 ft 514 kts 124°
2026-05-05 16:15 15.73023 75.96575 34913 ft 514 kts 124°
2026-05-05 16:16 15.65147 76.08922 34907 ft 513 kts 124°
2026-05-05 16:17 15.59256 76.18142 34905 ft 513 kts 124°
2026-05-05 16:18 15.53323 76.27412 34898 ft 513 kts 124°
2026-05-05 16:19 15.47429 76.36615 34891 ft 512 kts 124°
2026-05-05 16:19 15.41517 76.45835 34890 ft 511 kts 124°
2026-05-05 16:20 15.33646 76.58091 34886 ft 510 kts 124°
2026-05-05 16:22 15.23843 76.73328 34888 ft 509 kts 124°
2026-05-05 16:23 15.15961 76.85558 34891 ft 510 kts 124°
2026-05-05 16:23 15.10051 76.94716 34897 ft 510 kts 124°
2026-05-05 16:24 15.06129 77.00786 34898 ft 510 kts 125°
2026-05-05 16:25 15.00205 77.09947 34898 ft 510 kts 125°
2026-05-05 16:25 14.94272 77.19110 34902 ft 510 kts 125°
2026-05-05 16:26 14.86397 77.31258 34904 ft 510 kts 125°
2026-05-05 16:27 14.82447 77.37344 34902 ft 509 kts 125°
2026-05-05 16:27 14.78497 77.43425 34910 ft 509 kts 125°
2026-05-05 16:28 14.74553 77.49493 34909 ft 508 kts 125°
2026-05-05 16:28 14.70604 77.55563 34908 ft 508 kts 125°
2026-05-05 16:29 14.66658 77.61624 34910 ft 508 kts 125°
2026-05-05 16:29 14.62744 77.67631 34913 ft 507 kts 125°
2026-05-05 16:30 14.58800 77.73680 34909 ft 508 kts 125°
2026-05-05 16:30 14.54841 77.79746 34910 ft 508 kts 125°
2026-05-05 16:31 14.50883 77.85808 34915 ft 508 kts 125°
2026-05-05 16:31 14.46951 77.91825 34918 ft 508 kts 125°
2026-05-05 16:32 14.42991 77.97881 34916 ft 508 kts 125°
2026-05-05 16:32 14.39034 78.03928 34919 ft 508 kts 125°
2026-05-05 16:33 14.35074 78.09974 34921 ft 509 kts 125°
2026-05-05 16:33 14.31114 78.16016 34919 ft 509 kts 125°
2026-05-05 16:34 14.27185 78.22005 34921 ft 509 kts 125°
2026-05-05 16:34 14.23205 78.28068 34916 ft 509 kts 125°
2026-05-05 16:35 14.19239 78.34106 34919 ft 509 kts 125°
2026-05-05 16:35 14.15270 78.40144 34915 ft 508 kts 125°
2026-05-05 16:36 14.11293 78.46189 34913 ft 508 kts 125°
2026-05-05 16:36 14.07329 78.52210 34911 ft 508 kts 125°
2026-05-05 16:37 14.03366 78.58225 34911 ft 508 kts 125°
2026-05-05 16:37 13.99419 78.64212 34909 ft 508 kts 125°
2026-05-05 16:38 13.95445 78.70235 34904 ft 507 kts 125°
2026-05-05 16:38 13.91484 78.76233 34906 ft 504 kts 125°
2026-05-05 16:39 13.87542 78.82202 34906 ft 504 kts 125°
2026-05-05 16:39 13.83597 78.88170 34904 ft 504 kts 125°
2026-05-05 16:40 13.79683 78.94085 34906 ft 504 kts 125°
2026-05-05 16:40 13.75740 79.00042 34897 ft 503 kts 125°
2026-05-05 16:41 13.71790 79.06003 34896 ft 503 kts 125°
2026-05-05 16:41 13.67844 79.11955 34892 ft 503 kts 125°
2026-05-05 16:42 13.63902 79.17897 34885 ft 503 kts 125°
2026-05-05 16:42 13.59965 79.23825 34874 ft 502 kts 125°
2026-05-05 16:43 13.56039 79.29734 34867 ft 502 kts 125°
2026-05-05 16:43 13.52103 79.35656 34864 ft 502 kts 125°
2026-05-05 16:44 13.48159 79.41587 34859 ft 502 kts 125°
2026-05-05 16:44 13.44218 79.47503 34859 ft 502 kts 125°
2026-05-05 16:45 13.40277 79.53419 34856 ft 501 kts 125°
2026-05-05 16:45 13.36351 79.59309 34859 ft 501 kts 125°
2026-05-05 16:46 13.32405 79.65224 34850 ft 502 kts 125°
2026-05-05 16:46 13.28461 79.71130 34851 ft 502 kts 125°
2026-05-05 16:47 13.24515 79.77039 34847 ft 502 kts 125°
2026-05-05 16:47 13.20561 79.82954 34847 ft 502 kts 125°
2026-05-05 16:48 13.16611 79.88859 34844 ft 502 kts 125°
2026-05-05 16:48 13.12659 79.94763 34845 ft 502 kts 125°
2026-05-05 16:49 13.08709 80.00660 34856 ft 501 kts 125°
2026-05-05 16:49 13.04782 80.06521 34854 ft 501 kts 125°
2026-05-05 16:50 13.00824 80.12423 34856 ft 502 kts 125°
2026-05-05 16:50 12.96541 80.18068 34861 ft 501 kts 131°
2026-05-05 16:51 12.91957 80.23460 34860 ft 501 kts 132°
2026-05-05 16:51 12.87358 80.28782 34855 ft 501 kts 132°
2026-05-05 16:52 12.82734 80.34132 34850 ft 501 kts 132°
2026-05-05 16:52 12.78114 80.39491 34852 ft 501 kts 132°
2026-05-05 16:53 12.73496 80.44850 34841 ft 501 kts 132°
2026-05-05 16:53 12.68915 80.50164 34843 ft 500 kts 132°
2026-05-05 16:54 12.64304 80.55508 34842 ft 500 kts 133°
2026-05-05 16:54 12.59692 80.60849 34849 ft 499 kts 133°
2026-05-05 16:55 12.55868 80.65276 34848 ft 499 kts 133°
2026-05-05 16:55 12.51271 80.70594 34852 ft 499 kts 133°
2026-05-05 16:56 12.46673 80.75910 34865 ft 498 kts 133°
2026-05-05 16:56 12.42071 80.81228 34867 ft 499 kts 133°
2026-05-05 16:57 12.37471 80.86542 34856 ft 499 kts 133°
2026-05-05 16:57 12.32899 80.91820 34874 ft 499 kts 133°
2026-05-05 16:58 12.28290 80.97137 34862 ft 499 kts 133°
2026-05-05 16:58 12.23674 81.02459 34864 ft 499 kts 133°
2026-05-05 16:59 12.19061 81.07775 34880 ft 499 kts 133°
2026-05-05 16:59 12.14465 81.13068 34869 ft 499 kts 133°
2026-05-05 17:00 12.09848 81.18382 34865 ft 499 kts 133°
2026-05-05 17:00 12.05228 81.23697 34880 ft 499 kts 133°
2026-05-05 17:01 12.00612 81.29004 34866 ft 499 kts 133°
2026-05-05 17:01 11.96022 81.34278 34867 ft 499 kts 133°
2026-05-05 17:02 11.91413 81.39570 34879 ft 499 kts 133°
2026-05-05 17:02 11.86794 81.44873 34864 ft 498 kts 133°
2026-05-05 17:03 11.82190 81.50153 34860 ft 498 kts 133°
2026-05-05 17:03 11.77582 81.55437 34865 ft 498 kts 133°
2026-05-05 17:04 11.72965 81.60727 34878 ft 498 kts 133°
2026-05-05 17:04 11.68354 81.66009 34862 ft 498 kts 133°
2026-05-05 17:05 11.63776 81.71249 34874 ft 498 kts 133°
2026-05-05 17:05 11.59157 81.76533 34878 ft 498 kts 133°
2026-05-05 17:06 11.54535 81.81818 34870 ft 498 kts 133°
2026-05-05 17:06 11.49920 81.87092 34885 ft 498 kts 133°
2026-05-05 17:07 11.45304 81.92365 34877 ft 498 kts 133°
2026-05-05 17:07 11.40719 81.97599 34873 ft 498 kts 133°
2026-05-05 17:08 11.36099 82.02871 34873 ft 498 kts 133°
2026-05-05 17:08 11.31478 82.08141 34873 ft 498 kts 133°
2026-05-05 17:09 11.26857 82.13407 34887 ft 498 kts 133°
2026-05-05 17:09 11.22227 82.18682 34874 ft 498 kts 133°
2026-05-05 17:10 11.17613 82.23936 34873 ft 498 kts 133°
2026-05-05 17:10 11.13013 82.29170 34874 ft 498 kts 133°
2026-05-05 17:11 11.08384 82.34436 34878 ft 498 kts 133°
2026-05-05 17:11 11.03823 82.39622 34886 ft 498 kts 133°
2026-05-05 17:12 10.99205 82.44868 34870 ft 498 kts 133°
2026-05-05 17:12 10.94577 82.50124 34867 ft 498 kts 133°
2026-05-05 17:13 10.89982 82.55341 34877 ft 498 kts 133°
2026-05-05 17:13 10.85360 82.60585 34874 ft 498 kts 133°
2026-05-05 17:14 10.80736 82.65829 34869 ft 498 kts 133°
2026-05-05 17:14 10.76104 82.71078 34867 ft 498 kts 133°
2026-05-05 17:15 10.71502 82.76292 34867 ft 498 kts 133°
2026-05-05 17:15 10.66874 82.81533 34868 ft 498 kts 133°
2026-05-05 17:16 10.62242 82.86775 34863 ft 498 kts 133°
2026-05-05 17:16 10.57595 82.91992 34866 ft 498 kts 133°
2026-05-05 17:17 10.52928 82.97205 34865 ft 498 kts 133°
2026-05-05 17:17 10.48265 83.02416 34866 ft 498 kts 133°
2026-05-05 17:18 10.43606 83.07626 34872 ft 498 kts 133°
2026-05-05 17:18 10.38976 83.12804 34866 ft 498 kts 133°
2026-05-05 17:19 10.34319 83.18009 34867 ft 498 kts 133°
2026-05-05 17:19 10.29659 83.23216 34866 ft 498 kts 133°
2026-05-05 17:20 10.24992 83.28426 34865 ft 498 kts 133°
2026-05-05 17:20 10.20331 83.33628 34867 ft 498 kts 133°
2026-05-05 17:21 10.15669 83.38830 34866 ft 498 kts 133°
2026-05-05 17:22 10.08659 83.46644 34867 ft 498 kts 132°
2026-05-05 17:22 10.04014 83.51819 34870 ft 498 kts 132°
2026-05-05 17:23 9.99346 83.57018 34868 ft 498 kts 132°
2026-05-05 17:23 9.94672 83.62221 34869 ft 499 kts 132°
2026-05-05 17:24 9.89992 83.67429 34870 ft 499 kts 132°
2026-05-05 17:24 9.85317 83.72629 34870 ft 499 kts 132°
2026-05-05 17:25 9.80668 83.77797 34877 ft 499 kts 132°
2026-05-05 17:25 9.75984 83.83001 34869 ft 499 kts 132°
2026-05-05 17:26 9.71294 83.88211 34872 ft 499 kts 132°
2026-05-05 17:26 9.66610 83.93410 34871 ft 499 kts 132°
2026-05-05 17:27 9.61921 83.98615 34873 ft 500 kts 132°
2026-05-05 17:27 9.57234 84.03813 34868 ft 500 kts 132°
2026-05-05 17:28 9.52566 84.08988 34872 ft 500 kts 132°
2026-05-05 17:28 9.47875 84.14187 34866 ft 500 kts 132°
2026-05-05 17:29 9.43177 84.19392 34873 ft 499 kts 132°
2026-05-05 17:29 9.38488 84.24584 34871 ft 499 kts 132°
2026-05-05 17:30 9.33806 84.29767 34868 ft 499 kts 132°
2026-05-05 17:30 9.29129 84.34941 34870 ft 498 kts 132°
2026-05-05 17:31 9.24473 84.40090 34872 ft 498 kts 132°
2026-05-05 17:31 9.19791 84.45265 34870 ft 497 kts 132°
2026-05-05 17:32 9.15112 84.50435 34872 ft 497 kts 132°
2026-05-05 17:32 9.10476 84.55556 34872 ft 497 kts 132°
2026-05-05 17:33 9.05793 84.60726 34868 ft 497 kts 132°
2026-05-05 17:33 9.01120 84.65882 34872 ft 497 kts 132°
2026-05-05 17:34 8.96445 84.71040 34884 ft 497 kts 132°
2026-05-05 17:34 8.91767 84.76198 34874 ft 497 kts 132°
2026-05-05 17:35 8.87272 84.81471 34868 ft 498 kts 128°
2026-05-05 17:35 8.83047 84.87020 34872 ft 498 kts 127°
2026-05-05 17:36 8.78862 84.92610 34870 ft 498 kts 127°
2026-05-05 17:36 8.74678 84.98198 34872 ft 499 kts 127°
2026-05-05 17:37 8.70472 85.03798 34873 ft 500 kts 127°
2026-05-05 17:37 8.66259 85.09401 34875 ft 501 kts 127°
2026-05-05 17:38 8.62027 85.15025 34871 ft 503 kts 127°
2026-05-05 17:38 8.57818 85.20617 34873 ft 504 kts 127°
2026-05-05 17:39 8.53564 85.26267 34873 ft 505 kts 127°
2026-05-05 17:39 8.49297 85.31932 34873 ft 506 kts 127°
2026-05-05 17:40 8.45033 85.37590 34871 ft 506 kts 127°
2026-05-05 17:40 8.40788 85.43220 34879 ft 506 kts 127°
2026-05-05 17:41 8.36526 85.48872 34875 ft 505 kts 127°
2026-05-05 17:41 8.32278 85.54502 34873 ft 504 kts 127°
2026-05-05 17:42 8.28709 85.59231 34872 ft 503 kts 127°
2026-05-05 17:42 8.24501 85.64804 34888 ft 502 kts 127°
2026-05-05 17:43 8.20266 85.70411 34877 ft 501 kts 127°
2026-05-05 17:43 8.16042 85.76002 34873 ft 500 kts 127°
2026-05-05 17:44 8.11824 85.81581 34871 ft 499 kts 127°
2026-05-05 17:44 8.07610 85.87152 34869 ft 498 kts 127°
2026-05-05 17:45 8.03428 85.92681 34872 ft 498 kts 127°
2026-05-05 17:45 7.99222 85.98239 34870 ft 497 kts 127°
2026-05-05 17:46 7.95018 86.03791 34866 ft 497 kts 127°
2026-05-05 17:46 7.90833 86.09316 34870 ft 497 kts 127°
2026-05-05 17:47 7.86636 86.14856 34872 ft 497 kts 127°
2026-05-05 17:47 7.82432 86.20401 34865 ft 497 kts 127°
2026-05-05 17:48 7.78230 86.25944 34868 ft 497 kts 127°
2026-05-05 17:48 7.74026 86.31486 34880 ft 496 kts 127°
2026-05-05 17:49 7.69860 86.36976 34863 ft 496 kts 127°
2026-05-05 17:49 7.65666 86.42501 34879 ft 495 kts 127°
2026-05-05 17:50 7.61483 86.48010 34869 ft 495 kts 127°
2026-05-05 17:50 7.57292 86.53527 34867 ft 494 kts 127°
2026-05-05 17:51 7.53112 86.59018 34866 ft 493 kts 127°
2026-05-05 17:51 7.48901 86.64446 34866 ft 493 kts 128°
2026-05-05 17:52 7.44652 86.69898 34868 ft 494 kts 128°
2026-05-05 17:52 7.40406 86.75359 34868 ft 495 kts 128°
2026-05-05 17:53 7.36157 86.80832 34883 ft 496 kts 128°
2026-05-05 17:53 7.31923 86.86287 34863 ft 497 kts 128°
2026-05-05 17:54 7.27650 86.91789 34872 ft 498 kts 127°
2026-05-05 17:54 7.23372 86.97296 34867 ft 499 kts 127°
2026-05-05 17:55 7.19080 87.02819 34865 ft 500 kts 127°
2026-05-05 17:55 7.14787 87.08340 34877 ft 501 kts 127°
2026-05-05 17:56 7.10492 87.13865 34867 ft 501 kts 127°
2026-05-05 17:56 7.06194 87.19389 34866 ft 501 kts 127°
2026-05-05 17:57 7.01916 87.24887 34865 ft 501 kts 127°
2026-05-05 17:57 6.97619 87.30407 34865 ft 500 kts 128°
2026-05-05 17:58 6.93325 87.35921 34869 ft 500 kts 128°
2026-05-05 17:58 6.89029 87.41437 34866 ft 500 kts 128°
2026-05-05 17:59 6.84735 87.46947 34867 ft 500 kts 128°
2026-05-05 17:59 6.80447 87.52448 34866 ft 500 kts 128°
2026-05-05 18:00 6.76147 87.57962 34865 ft 500 kts 127°
2026-05-05 18:00 6.71862 87.63457 34864 ft 499 kts 127°
2026-05-05 18:01 6.67571 87.68957 34861 ft 499 kts 127°
2026-05-05 18:01 6.63305 87.74423 34861 ft 499 kts 127°
2026-05-05 18:02 6.59009 87.79925 34863 ft 499 kts 127°
2026-05-05 18:02 6.54721 87.85416 34858 ft 499 kts 127°
2026-05-05 18:03 6.50430 87.90909 34859 ft 498 kts 127°
2026-05-05 18:03 6.46173 87.96357 34856 ft 498 kts 127°
2026-05-05 18:04 6.41875 88.01841 34858 ft 498 kts 128°
2026-05-05 18:04 6.37426 88.07173 34857 ft 497 kts 130°
2026-05-05 18:05 6.32913 88.12459 34870 ft 497 kts 129°
2026-05-05 18:05 6.28458 88.17721 34874 ft 497 kts 129°
2026-05-05 18:06 6.23997 88.23028 34871 ft 497 kts 129°
2026-05-05 18:06 6.19535 88.28345 34858 ft 497 kts 129°
2026-05-05 18:07 6.15066 88.33667 34858 ft 498 kts 129°
2026-05-05 18:07 6.10596 88.38989 34857 ft 498 kts 129°
2026-05-05 18:08 6.06122 88.44312 34861 ft 499 kts 129°
2026-05-05 18:08 6.01675 88.49601 34857 ft 499 kts 129°
2026-05-05 18:09 5.97187 88.54937 34856 ft 500 kts 129°
2026-05-05 18:09 5.92701 88.60271 34853 ft 500 kts 129°
2026-05-05 18:10 5.88205 88.65614 34855 ft 500 kts 129°
2026-05-05 18:10 5.83723 88.70939 34860 ft 500 kts 129°
2026-05-05 18:11 5.79222 88.76285 34856 ft 499 kts 129°
2026-05-05 18:11 5.74773 88.81569 34852 ft 499 kts 129°
2026-05-05 18:12 5.70289 88.86893 34849 ft 498 kts 129°
2026-05-05 18:12 5.65810 88.92209 34849 ft 497 kts 129°
2026-05-05 18:13 5.61374 88.97473 34852 ft 496 kts 129°
2026-05-05 18:13 5.56912 89.02765 34848 ft 496 kts 129°
2026-05-05 18:14 5.52452 89.08056 34852 ft 495 kts 129°
2026-05-05 18:14 5.48001 89.13333 34853 ft 495 kts 129°
2026-05-05 18:15 5.43549 89.18610 34855 ft 495 kts 129°
2026-05-05 18:15 5.39133 89.23844 34851 ft 495 kts 129°
2026-05-05 18:16 5.34673 89.29128 34849 ft 495 kts 129°
2026-05-05 18:16 5.30218 89.34404 34848 ft 495 kts 129°
2026-05-05 18:17 5.25766 89.39677 34849 ft 495 kts 129°
2026-05-05 18:17 5.21301 89.44963 34853 ft 495 kts 129°
2026-05-05 18:18 5.16849 89.50232 34854 ft 496 kts 129°
2026-05-05 18:18 5.12417 89.55478 34849 ft 496 kts 129°
2026-05-05 18:19 5.07957 89.60753 34848 ft 496 kts 129°
2026-05-05 18:19 5.03492 89.66035 34850 ft 496 kts 129°
2026-05-05 18:20 4.99027 89.71315 34851 ft 496 kts 129°
2026-05-05 18:20 4.94564 89.76591 34851 ft 496 kts 129°
2026-05-05 18:21 4.90086 89.81883 34852 ft 496 kts 129°
2026-05-05 18:21 4.85624 89.87157 34853 ft 496 kts 129°
2026-05-05 18:22 4.81146 89.92447 34852 ft 496 kts 129°
2026-05-05 18:22 4.76706 89.97692 34856 ft 496 kts 129°
2026-05-05 18:23 4.72239 90.02966 34852 ft 496 kts 129°
2026-05-05 18:23 4.67775 90.08237 34861 ft 496 kts 129°
2026-05-05 18:24 4.63303 90.13515 34853 ft 496 kts 129°
2026-05-05 18:24 4.58830 90.18794 34852 ft 496 kts 130°
2026-05-05 18:25 4.54358 90.24071 34854 ft 496 kts 130°
2026-05-05 18:25 4.49922 90.29304 34851 ft 496 kts 130°
2026-05-05 18:26 4.45456 90.34571 34850 ft 496 kts 130°
2026-05-05 18:26 4.40993 90.39834 34853 ft 496 kts 130°
2026-05-05 18:27 4.36531 90.45098 34856 ft 496 kts 130°
2026-05-05 18:27 4.32059 90.50369 34856 ft 496 kts 130°
2026-05-05 18:28 4.26102 90.57388 34852 ft 496 kts 130°
2026-05-05 18:28 4.21632 90.62656 34856 ft 496 kts 130°
2026-05-05 18:29 4.17156 90.67930 34855 ft 496 kts 130°
2026-05-05 18:29 4.12677 90.73206 34853 ft 496 kts 130°
2026-05-05 18:30 4.08204 90.78473 34849 ft 497 kts 130°
2026-05-05 18:30 4.03752 90.83715 34854 ft 497 kts 130°
2026-05-05 18:31 3.99268 90.88994 34852 ft 497 kts 130°
2026-05-05 18:31 3.94781 90.94275 34851 ft 497 kts 130°
2026-05-05 18:32 3.90323 90.99521 34851 ft 497 kts 130°
2026-05-05 18:32 3.85847 91.04789 34850 ft 497 kts 130°
2026-05-05 18:33 3.81357 91.10070 34854 ft 497 kts 130°
2026-05-05 18:33 3.76877 91.15339 34850 ft 497 kts 130°
2026-05-05 18:34 3.72388 91.20618 34854 ft 497 kts 130°
2026-05-05 18:34 3.67900 91.25896 34849 ft 497 kts 130°
2026-05-05 18:35 3.63414 91.31169 34847 ft 497 kts 130°
2026-05-05 18:35 3.58928 91.36442 34849 ft 497 kts 130°
2026-05-05 18:36 3.54446 91.41711 34851 ft 497 kts 130°
2026-05-05 18:36 3.49982 91.46961 34852 ft 497 kts 130°
2026-05-05 18:37 3.45499 91.52229 34850 ft 497 kts 130°
2026-05-05 18:37 3.41007 91.57507 34853 ft 497 kts 130°
2026-05-05 18:38 3.36522 91.62777 34849 ft 497 kts 130°
2026-05-05 18:38 3.32045 91.68037 34855 ft 497 kts 130°
2026-05-05 18:39 3.27564 91.73302 34852 ft 496 kts 130°
2026-05-05 18:39 3.23079 91.78569 34853 ft 497 kts 130°
2026-05-05 18:40 3.18622 91.83803 34853 ft 497 kts 130°
2026-05-05 18:40 3.14142 91.89063 34848 ft 497 kts 130°
2026-05-05 18:41 3.09651 91.94336 34846 ft 497 kts 130°
2026-05-05 18:41 3.05161 91.99607 34847 ft 497 kts 130°
2026-05-05 18:42 3.00770 92.04889 34846 ft 497 kts 128°
2026-05-05 18:42 2.96427 92.10277 34850 ft 496 kts 128°
2026-05-05 18:43 2.92087 92.15653 34851 ft 496 kts 128°
2026-05-05 18:43 2.87727 92.21024 34850 ft 497 kts 128°
2026-05-05 18:44 2.83389 92.26354 34847 ft 497 kts 128°
2026-05-05 18:44 2.79021 92.31720 34848 ft 497 kts 128°
2026-05-05 18:45 2.74654 92.37084 34846 ft 497 kts 128°
2026-05-05 18:45 2.70286 92.42449 34849 ft 497 kts 128°
2026-05-05 18:46 2.65923 92.47809 34848 ft 497 kts 128°
2026-05-05 18:46 2.61559 92.53168 34848 ft 497 kts 128°
2026-05-05 18:47 2.57224 92.58492 34849 ft 496 kts 128°
2026-05-05 18:47 2.52855 92.63857 34851 ft 496 kts 128°
2026-05-05 18:48 2.48490 92.69216 34850 ft 496 kts 128°
2026-05-05 18:48 2.44120 92.74581 34846 ft 497 kts 128°
2026-05-05 18:49 2.39758 92.79935 34848 ft 497 kts 128°
2026-05-05 18:49 2.35408 92.85272 34849 ft 497 kts 128°
2026-05-05 18:50 2.31037 92.90637 34848 ft 497 kts 129°
2026-05-05 18:50 2.26670 92.95995 34847 ft 497 kts 129°
2026-05-05 18:51 2.22295 93.01363 34849 ft 497 kts 129°
2026-05-05 18:51 2.17925 93.06723 34849 ft 497 kts 129°
2026-05-05 18:52 2.13588 93.12044 34846 ft 497 kts 129°
2026-05-05 18:52 2.09226 93.17394 34850 ft 496 kts 129°
2026-05-05 18:53 2.04855 93.22754 34844 ft 497 kts 129°
2026-05-05 18:53 2.00477 93.28123 34848 ft 497 kts 129°
2026-05-05 18:54 1.96110 93.33478 34846 ft 497 kts 129°
2026-05-05 18:54 1.91765 93.38805 34847 ft 496 kts 129°
2026-05-05 18:55 1.87395 93.44162 34845 ft 496 kts 129°
2026-05-05 18:55 1.83035 93.49507 34845 ft 496 kts 129°
2026-05-05 18:56 1.78659 93.54871 34845 ft 496 kts 129°
2026-05-05 18:56 1.74320 93.60188 34845 ft 496 kts 129°
2026-05-05 18:57 1.69952 93.65542 34845 ft 496 kts 129°
2026-05-05 18:57 1.65588 93.70890 34846 ft 496 kts 129°
2026-05-05 18:58 1.61244 93.76213 34843 ft 496 kts 129°
2026-05-05 18:58 1.56879 93.81562 34846 ft 496 kts 129°
2026-05-05 18:59 1.52512 93.86912 34847 ft 496 kts 129°
2026-05-05 18:59 1.48152 93.92253 34846 ft 496 kts 129°
2026-05-05 19:00 1.43779 93.97609 34847 ft 496 kts 129°
2026-05-05 19:00 1.39413 94.02958 34843 ft 496 kts 129°
2026-05-05 19:01 1.35047 94.08306 34843 ft 496 kts 129°
2026-05-05 19:01 1.30675 94.13660 34842 ft 496 kts 129°
2026-05-05 19:02 1.26337 94.18973 34844 ft 496 kts 129°
2026-05-05 19:02 1.21958 94.24334 34846 ft 496 kts 129°
2026-05-05 19:03 1.17597 94.29675 34842 ft 496 kts 129°
2026-05-05 19:03 1.13232 94.35019 34845 ft 496 kts 129°
2026-05-05 19:04 1.08890 94.40336 34842 ft 496 kts 129°
2026-05-05 19:04 1.04520 94.45686 34846 ft 496 kts 128°
2026-05-05 19:05 1.00151 94.51035 34847 ft 496 kts 128°
2026-05-05 19:05 0.95784 94.56381 34844 ft 496 kts 128°
2026-05-05 19:06 0.91419 94.61728 34842 ft 496 kts 128°
2026-05-05 19:06 0.87070 94.67052 34843 ft 496 kts 128°
2026-05-05 19:07 0.83416 94.71525 34843 ft 496 kts 128°
2026-05-05 19:07 0.78344 94.77735 34842 ft 496 kts 128°
2026-05-05 19:08 0.73977 94.83081 34844 ft 496 kts 128°
2026-05-05 19:08 0.69638 94.88393 34842 ft 496 kts 128°
2026-05-05 19:09 0.65267 94.93744 34844 ft 496 kts 128°
2026-05-05 19:09 0.60895 94.99096 34843 ft 496 kts 128°
2026-05-05 19:10 0.56526 95.04444 34840 ft 496 kts 128°
2026-05-05 19:10 0.52180 95.09765 34841 ft 496 kts 128°
2026-05-05 19:11 0.47813 95.15110 34840 ft 496 kts 128°
2026-05-05 19:11 0.43445 95.20456 34841 ft 496 kts 128°
2026-05-05 19:12 0.39077 95.25804 34841 ft 496 kts 128°
2026-05-05 19:12 0.34703 95.31157 34839 ft 496 kts 128°
2026-05-05 19:13 0.30360 95.36473 34839 ft 497 kts 128°
2026-05-05 19:13 0.26719 95.40930 34839 ft 497 kts 128°
2026-05-05 19:14 0.21620 95.47171 34840 ft 497 kts 128°
2026-05-05 19:14 0.17980 95.51627 34840 ft 497 kts 128°
2026-05-05 19:15 0.13605 95.56981 34838 ft 497 kts 128°
2026-05-05 19:15 0.09226 95.62341 34837 ft 497 kts 128°
2026-05-05 19:16 0.04852 95.67694 34837 ft 497 kts 128°
2026-05-05 19:16 0.00482 95.73043 34837 ft 497 kts 128°
2026-05-05 19:17 -0.03861 95.78359 34837 ft 497 kts 128°
2026-05-05 19:17 -0.08240 95.83719 34839 ft 497 kts 128°
2026-05-05 19:18 -0.12624 95.89084 34838 ft 497 kts 128°
2026-05-05 19:18 -0.17000 95.94440 34839 ft 497 kts 128°
2026-05-05 19:19 -0.21346 95.99760 34839 ft 497 kts 128°
2026-05-05 19:19 -0.25749 96.05149 34838 ft 497 kts 128°
2026-05-05 19:20 -0.30105 96.10480 34840 ft 498 kts 128°
2026-05-05 19:20 -0.34485 96.15840 34840 ft 498 kts 128°
2026-05-05 19:21 -0.38850 96.21184 34837 ft 498 kts 128°
2026-05-05 19:21 -0.43236 96.26552 34839 ft 499 kts 128°
2026-05-05 19:22 -0.47629 96.31930 34839 ft 499 kts 128°
2026-05-05 19:22 -0.52034 96.37322 34835 ft 499 kts 128°
2026-05-05 19:23 -0.56424 96.42696 34837 ft 499 kts 128°
2026-05-05 19:23 -0.60781 96.48029 34839 ft 498 kts 128°
2026-05-05 19:24 -0.65170 96.53403 34837 ft 498 kts 128°
2026-05-05 19:24 -0.69551 96.58766 34836 ft 498 kts 128°
2026-05-05 19:25 -0.73941 96.64141 34836 ft 498 kts 128°
2026-05-05 19:25 -0.78299 96.69477 34835 ft 498 kts 128°
2026-05-05 19:26 -0.82684 96.74845 34830 ft 499 kts 128°
2026-05-05 19:26 -0.87071 96.80216 34832 ft 499 kts 128°
2026-05-05 19:27 -0.91463 96.85594 34832 ft 499 kts 128°
2026-05-05 19:27 -0.95853 96.90970 34832 ft 498 kts 128°
2026-05-05 19:28 -1.00237 96.96339 34832 ft 498 kts 128°
2026-05-05 19:28 -1.04623 97.01710 34832 ft 498 kts 128°
2026-05-05 19:29 -1.08982 97.07047 34835 ft 498 kts 128°
2026-05-05 19:29 -1.13357 97.12406 34834 ft 497 kts 128°
2026-05-05 19:30 -1.17734 97.17767 34831 ft 497 kts 128°
2026-05-05 19:30 -1.22111 97.23128 34837 ft 497 kts 128°
2026-05-05 19:31 -1.26481 97.28481 34833 ft 497 kts 128°
2026-05-05 19:31 -1.30824 97.33801 34835 ft 497 kts 128°
2026-05-05 19:32 -1.35194 97.39155 34832 ft 497 kts 128°
2026-05-05 19:32 -1.39572 97.44519 34832 ft 497 kts 128°
2026-05-05 19:33 -1.43948 97.49880 34831 ft 497 kts 128°
2026-05-05 19:33 -1.48294 97.55205 34832 ft 497 kts 128°
2026-05-05 19:34 -1.52674 97.60573 34831 ft 497 kts 128°
2026-05-05 19:35 -1.59240 97.68621 34833 ft 497 kts 128°
2026-05-05 19:35 -1.63516 97.74057 34832 ft 497 kts 126°
2026-05-05 19:36 -1.67641 97.79552 34831 ft 497 kts 126°
2026-05-05 19:36 -1.71801 97.85076 34831 ft 497 kts 126°
2026-05-05 19:37 -1.75982 97.90583 34831 ft 497 kts 126°
2026-05-05 19:37 -1.80176 97.96084 34833 ft 497 kts 127°
2026-05-05 19:38 -1.84374 98.01591 34833 ft 497 kts 126°
2026-05-05 19:38 -1.88541 98.07060 34835 ft 498 kts 127°
2026-05-05 19:39 -1.92745 98.12578 34833 ft 498 kts 127°
2026-05-05 19:39 -1.96947 98.18094 34833 ft 498 kts 127°
2026-05-05 19:40 -2.01149 98.23610 34834 ft 498 kts 127°
2026-05-05 19:40 -2.05351 98.29128 34834 ft 499 kts 126°
2026-05-05 19:41 -2.09554 98.34647 34835 ft 499 kts 126°
2026-05-05 19:41 -2.13726 98.40125 34831 ft 498 kts 126°
2026-05-05 19:42 -2.17935 98.45654 34833 ft 498 kts 126°
2026-05-05 19:42 -2.22139 98.51177 34834 ft 498 kts 126°
2026-05-05 19:43 -2.26314 98.56663 34833 ft 498 kts 126°
2026-05-05 19:43 -2.30517 98.62184 34834 ft 498 kts 127°
2026-05-05 19:44 -2.34729 98.67719 34836 ft 499 kts 127°
2026-05-05 19:44 -2.38899 98.73199 34834 ft 499 kts 126°
2026-05-05 19:45 -2.43106 98.78728 34836 ft 499 kts 126°
2026-05-05 19:45 -2.47319 98.84266 34837 ft 499 kts 126°
2026-05-05 19:46 -2.51531 98.89803 34833 ft 499 kts 126°
2026-05-05 19:46 -2.55745 98.95344 34835 ft 500 kts 126°
2026-05-05 19:47 -2.59949 99.00873 34833 ft 500 kts 126°
2026-05-05 19:47 -2.64132 99.06374 34835 ft 500 kts 126°
2026-05-05 19:48 -2.68342 99.11911 34836 ft 500 kts 126°
2026-05-05 19:48 -2.72568 99.17470 34834 ft 500 kts 126°
2026-05-05 19:49 -2.76752 99.22974 34833 ft 500 kts 126°
2026-05-05 19:49 -2.80964 99.28516 34835 ft 500 kts 126°
2026-05-05 19:50 -2.85177 99.34061 34836 ft 500 kts 127°
2026-05-05 19:50 -2.89393 99.39610 34836 ft 500 kts 126°
2026-05-05 19:51 -2.93607 99.45156 34836 ft 500 kts 126°
2026-05-05 19:51 -2.97823 99.50708 34838 ft 500 kts 127°
2026-05-05 19:52 -3.02015 99.56227 34839 ft 501 kts 127°
2026-05-05 19:52 -3.06232 99.61780 34837 ft 501 kts 127°
2026-05-05 19:53 -3.10445 99.67329 34836 ft 501 kts 127°
2026-05-05 19:53 -3.14656 99.72876 34836 ft 501 kts 127°
2026-05-05 19:54 -3.18881 99.78443 34840 ft 501 kts 127°
2026-05-05 19:54 -3.23062 99.83952 34836 ft 501 kts 127°
2026-05-05 19:55 -3.27286 99.89519 34835 ft 501 kts 127°
2026-05-05 19:55 -3.31513 99.95090 34838 ft 501 kts 127°
2026-05-05 19:56 -3.35737 100.00658 34837 ft 501 kts 127°
2026-05-05 19:56 -3.39935 100.06194 34838 ft 501 kts 127°
2026-05-05 19:57 -3.44154 100.11758 34841 ft 502 kts 127°
2026-05-05 19:57 -3.48376 100.17326 34837 ft 502 kts 127°
2026-05-05 19:58 -3.52598 100.22896 34839 ft 502 kts 127°
2026-05-05 19:58 -3.56817 100.28462 34837 ft 502 kts 127°
2026-05-05 19:59 -3.61018 100.34005 34839 ft 502 kts 127°
2026-05-05 19:59 -3.65238 100.39575 34839 ft 502 kts 127°
2026-05-05 20:00 -3.69461 100.45149 34839 ft 502 kts 127°
2026-05-05 20:00 -3.73683 100.50724 34838 ft 502 kts 127°
2026-05-05 20:01 -3.77886 100.56275 34837 ft 502 kts 127°
2026-05-05 20:01 -3.82104 100.61846 34839 ft 502 kts 127°
2026-05-05 20:02 -3.85615 100.66484 34841 ft 502 kts 127°
2026-05-05 20:02 -3.89837 100.72062 34839 ft 502 kts 127°
2026-05-05 20:03 -3.94062 100.77645 34840 ft 502 kts 127°
2026-05-05 20:03 -3.98287 100.83230 34838 ft 502 kts 127°
2026-05-05 20:04 -4.02510 100.88813 34842 ft 502 kts 127°
2026-05-05 20:04 -4.06705 100.94360 34841 ft 502 kts 127°
2026-05-05 20:05 -4.10929 100.99946 34843 ft 502 kts 127°
2026-05-05 20:05 -4.15144 101.05522 34845 ft 502 kts 127°
2026-05-05 20:06 -4.19365 101.11105 34844 ft 503 kts 127°
2026-05-05 20:06 -4.23591 101.16698 34841 ft 503 kts 127°
2026-05-05 20:07 -4.27819 101.22295 34839 ft 503 kts 127°
2026-05-05 20:07 -4.32024 101.27861 34841 ft 504 kts 127°
2026-05-05 20:08 -4.36256 101.33465 34842 ft 504 kts 127°
2026-05-05 20:08 -4.40491 101.39075 34841 ft 504 kts 127°
2026-05-05 20:09 -4.44724 101.44681 34840 ft 504 kts 127°
2026-05-05 20:09 -4.48928 101.50252 34844 ft 504 kts 127°
2026-05-05 20:10 -4.53161 101.55861 34842 ft 504 kts 127°
2026-05-05 20:10 -4.57394 101.61472 34844 ft 504 kts 127°
2026-05-05 20:11 -4.61622 101.67077 34842 ft 504 kts 127°
2026-05-05 20:11 -4.65829 101.72657 34839 ft 504 kts 127°
2026-05-05 20:12 -4.70045 101.78249 34841 ft 504 kts 127°
2026-05-05 20:12 -4.74276 101.83862 34842 ft 503 kts 127°
2026-05-05 20:13 -4.78501 101.89470 34841 ft 503 kts 127°
2026-05-05 20:13 -4.82688 101.95027 34839 ft 503 kts 127°
2026-05-05 20:14 -4.86913 102.00636 34838 ft 503 kts 127°
2026-05-05 20:14 -4.91124 102.06229 34837 ft 503 kts 127°
2026-05-05 20:15 -4.95337 102.11824 34839 ft 503 kts 126°
2026-05-05 20:15 -4.99556 102.17430 34838 ft 503 kts 126°
2026-05-05 20:16 -5.03773 102.23034 34836 ft 503 kts 126°
2026-05-05 20:16 -5.07968 102.28609 34838 ft 503 kts 126°
2026-05-05 20:17 -5.12174 102.34203 34837 ft 503 kts 126°
2026-05-05 20:17 -5.16394 102.39814 34838 ft 503 kts 126°
2026-05-05 20:18 -5.20610 102.45422 34837 ft 503 kts 126°
2026-05-05 20:18 -5.24825 102.51031 34837 ft 503 kts 126°
2026-05-05 20:19 -5.29009 102.56600 34836 ft 503 kts 126°
2026-05-05 20:19 -5.33216 102.62199 34837 ft 502 kts 126°
2026-05-05 20:20 -5.37430 102.67810 34837 ft 502 kts 126°
2026-05-05 20:20 -5.41639 102.73417 34835 ft 502 kts 126°
2026-05-05 20:21 -5.45824 102.78992 34834 ft 502 kts 126°
2026-05-05 20:21 -5.50026 102.84592 34835 ft 502 kts 126°
2026-05-05 20:22 -5.54230 102.90195 34835 ft 502 kts 126°
2026-05-05 20:22 -5.58438 102.95805 34835 ft 502 kts 126°
2026-05-05 20:23 -5.62641 103.01409 34834 ft 503 kts 126°
2026-05-05 20:23 -5.66822 103.06987 34835 ft 503 kts 126°
2026-05-05 20:24 -5.71037 103.12612 34835 ft 504 kts 126°
2026-05-05 20:24 -5.75251 103.18238 34836 ft 504 kts 126°
2026-05-05 20:25 -5.79471 103.23874 34833 ft 504 kts 126°
2026-05-05 20:25 -5.83664 103.29475 34835 ft 505 kts 126°
2026-05-05 20:26 -5.87886 103.35115 34837 ft 505 kts 126°
2026-05-05 20:26 -5.92111 103.40760 34838 ft 505 kts 126°
2026-05-05 20:27 -5.96346 103.46418 34836 ft 505 kts 126°
2026-05-05 20:27 -6.00543 103.52028 34837 ft 505 kts 126°
2026-05-05 20:28 -6.04774 103.57688 34836 ft 505 kts 126°
2026-05-05 20:28 -6.08995 103.63338 34839 ft 505 kts 126°
2026-05-05 20:29 -6.13215 103.68985 34837 ft 505 kts 126°
2026-05-05 20:29 -6.17436 103.74632 34841 ft 505 kts 126°
2026-05-05 20:30 -6.21659 103.80293 34840 ft 505 kts 126°
2026-05-05 20:30 -6.25850 103.85906 34841 ft 505 kts 126°
2026-05-05 20:31 -6.30068 103.91556 34842 ft 505 kts 126°
2026-05-05 20:31 -6.34292 103.97218 34841 ft 505 kts 126°
2026-05-05 20:32 -6.38503 104.02863 34840 ft 504 kts 126°
2026-05-05 20:32 -6.42713 104.08508 34838 ft 504 kts 126°
2026-05-05 20:33 -6.46918 104.14151 34836 ft 504 kts 126°
2026-05-05 20:33 -6.51100 104.19763 34837 ft 505 kts 126°
2026-05-05 20:34 -6.55317 104.25425 34838 ft 505 kts 126°
2026-05-05 20:34 -6.59526 104.31077 34842 ft 505 kts 126°
2026-05-05 20:35 -6.63756 104.36757 34842 ft 506 kts 126°
2026-05-05 20:35 -6.67974 104.42426 34840 ft 506 kts 126°
2026-05-05 20:36 -6.72196 104.48099 34842 ft 506 kts 126°
2026-05-05 20:36 -6.76388 104.53738 34840 ft 507 kts 126°
2026-05-05 20:37 -6.80618 104.59428 34842 ft 507 kts 126°
2026-05-05 20:37 -6.84842 104.65109 34845 ft 507 kts 126°
2026-05-05 20:38 -6.89059 104.70785 34842 ft 507 kts 126°
2026-05-05 20:38 -6.93280 104.76468 34842 ft 506 kts 126°
2026-05-05 20:39 -6.97505 104.82155 34844 ft 506 kts 126°
2026-05-05 20:39 -7.01702 104.87810 34842 ft 506 kts 126°
2026-05-05 20:40 -7.05918 104.93492 34841 ft 506 kts 126°
2026-05-05 20:40 -7.10133 104.99175 34842 ft 506 kts 126°
2026-05-05 20:41 -7.14350 105.04863 34843 ft 506 kts 126°
2026-05-05 20:41 -7.18560 105.10542 34847 ft 506 kts 126°
2026-05-05 20:42 -7.22750 105.16199 34845 ft 506 kts 126°
2026-05-05 20:42 -7.26967 105.21894 34846 ft 506 kts 126°
2026-05-05 20:43 -7.31216 105.27555 34845 ft 507 kts 127°
2026-05-05 20:43 -7.35690 105.33063 34846 ft 507 kts 129°
2026-05-05 20:44 -7.40197 105.38538 34846 ft 507 kts 128°
2026-05-05 20:44 -7.44657 105.44024 34847 ft 507 kts 128°
2026-05-05 20:45 -7.51311 105.52280 34846 ft 507 kts 128°
2026-05-05 20:45 -7.55753 105.57799 34845 ft 507 kts 128°
2026-05-05 20:46 -7.60198 105.63321 34844 ft 507 kts 128°
2026-05-05 20:46 -7.64647 105.68850 34849 ft 506 kts 128°
2026-05-05 20:47 -7.69051 105.74322 34848 ft 506 kts 128°
2026-05-05 20:47 -7.73484 105.79832 34848 ft 505 kts 128°
2026-05-05 20:48 -7.77910 105.85338 34851 ft 506 kts 128°
2026-05-05 20:48 -7.82342 105.90851 34849 ft 506 kts 128°
2026-05-05 20:49 -7.86040 105.95454 34851 ft 507 kts 128°
2026-05-05 20:49 -7.91230 106.01918 34853 ft 508 kts 128°
2026-05-05 20:50 -7.94935 106.06531 34853 ft 508 kts 128°
2026-05-05 20:50 -7.99381 106.12070 34855 ft 509 kts 128°
2026-05-05 20:51 -8.03838 106.17624 34856 ft 509 kts 128°
2026-05-05 20:51 -8.08291 106.23178 34853 ft 509 kts 128°
2026-05-05 20:52 -8.12748 106.28737 34854 ft 509 kts 129°
2026-05-05 20:52 -8.17205 106.34302 34853 ft 509 kts 129°
2026-05-05 20:53 -8.21577 106.39924 34854 ft 509 kts 127°
2026-05-05 20:53 -8.25892 106.45594 34853 ft 509 kts 127°
2026-05-05 20:54 -8.30221 106.51268 34854 ft 509 kts 128°
2026-05-05 20:54 -8.34531 106.56892 34854 ft 510 kts 128°
2026-05-05 20:55 -8.38877 106.62556 34853 ft 510 kts 128°
2026-05-05 20:55 -8.43221 106.68221 34853 ft 510 kts 128°
2026-05-05 20:56 -8.47567 106.73891 34852 ft 511 kts 128°
2026-05-05 20:56 -8.51921 106.79572 34854 ft 511 kts 128°
2026-05-05 20:57 -8.56283 106.85268 34858 ft 512 kts 128°
2026-05-05 20:57 -8.60633 106.90952 34853 ft 512 kts 128°
2026-05-05 20:58 -8.64968 106.96617 34859 ft 512 kts 128°
2026-05-05 20:58 -8.69330 107.02320 34856 ft 512 kts 128°
2026-05-05 20:59 -8.73690 107.08024 34857 ft 512 kts 128°
2026-05-05 20:59 -8.78032 107.13705 34856 ft 513 kts 128°
2026-05-05 21:00 -8.82395 107.19418 34855 ft 513 kts 128°
2026-05-05 21:00 -8.86762 107.25137 34854 ft 514 kts 128°
2026-05-05 21:01 -8.91137 107.30870 34858 ft 514 kts 128°
2026-05-05 21:01 -8.95507 107.36599 34864 ft 515 kts 128°
2026-05-05 21:02 -8.99853 107.42301 34862 ft 515 kts 128°
2026-05-05 21:02 -9.04231 107.48043 34863 ft 515 kts 128°
2026-05-05 21:03 -9.08607 107.53788 34867 ft 515 kts 129°
2026-05-05 21:03 -9.12989 107.59542 34866 ft 516 kts 129°
2026-05-05 21:04 -9.17368 107.65298 34866 ft 516 kts 129°
2026-05-05 21:04 -9.21759 107.71072 34868 ft 517 kts 129°
2026-05-05 21:05 -9.26150 107.76845 34869 ft 517 kts 129°
2026-05-05 21:05 -9.30537 107.82615 34870 ft 517 kts 129°
2026-05-05 21:06 -9.34923 107.88388 34872 ft 517 kts 129°
2026-05-05 21:06 -9.39307 107.94161 34870 ft 517 kts 129°
2026-05-05 21:07 -9.43675 107.99917 34868 ft 518 kts 129°
2026-05-05 21:07 -9.48067 108.05700 34868 ft 518 kts 129°
2026-05-05 21:08 -9.52461 108.11488 34870 ft 518 kts 129°
2026-05-05 21:08 -9.56861 108.17289 34872 ft 518 kts 129°
2026-05-05 21:09 -9.61258 108.23092 34872 ft 518 kts 129°
2026-05-05 21:09 -9.65627 108.28857 34871 ft 518 kts 129°
2026-05-05 21:10 -9.70017 108.34655 34872 ft 519 kts 129°
2026-05-05 21:10 -9.74411 108.40463 34876 ft 519 kts 129°
2026-05-05 21:11 -9.78806 108.46273 34877 ft 519 kts 129°
2026-05-05 21:11 -9.83198 108.52079 34876 ft 519 kts 129°
2026-05-05 21:12 -9.87588 108.57889 34879 ft 519 kts 129°
2026-05-05 21:12 -9.91949 108.63661 34879 ft 519 kts 129°
2026-05-05 21:13 -9.96336 108.69470 34878 ft 519 kts 129°
2026-05-05 21:13 -10.00726 108.75287 34880 ft 519 kts 129°
2026-05-05 21:14 -10.05116 108.81107 34884 ft 518 kts 129°
2026-05-05 21:14 -10.09500 108.86922 34884 ft 518 kts 129°
2026-05-05 21:15 -10.13848 108.92693 34885 ft 518 kts 129°
2026-05-05 21:15 -10.18225 108.98504 34883 ft 518 kts 129°
2026-05-05 21:16 -10.22595 109.04309 34886 ft 517 kts 129°
2026-05-05 21:16 -10.26972 109.10127 34886 ft 517 kts 129°
2026-05-05 21:17 -10.31316 109.15904 34886 ft 517 kts 129°
2026-05-05 21:17 -10.35693 109.21727 34888 ft 517 kts 129°
2026-05-05 21:18 -10.40068 109.27550 34888 ft 517 kts 129°
2026-05-05 21:18 -10.44436 109.33368 34888 ft 517 kts 129°
2026-05-05 21:19 -10.48774 109.39148 34886 ft 518 kts 129°
2026-05-05 21:19 -10.53140 109.44969 34888 ft 518 kts 129°
2026-05-05 21:20 -10.57518 109.50809 34889 ft 518 kts 129°
2026-05-05 21:20 -10.61883 109.56635 34891 ft 518 kts 129°
2026-05-05 21:21 -10.66228 109.62436 34889 ft 518 kts 129°
2026-05-05 21:21 -10.70592 109.68267 34895 ft 518 kts 129°
2026-05-05 21:22 -10.74961 109.74107 34894 ft 518 kts 129°
2026-05-05 21:22 -10.79322 109.79940 34891 ft 518 kts 129°
2026-05-05 21:23 -10.83686 109.85780 34894 ft 518 kts 129°
2026-05-05 21:23 -10.88049 109.91622 34897 ft 518 kts 129°
2026-05-05 21:24 -10.92422 109.97481 34897 ft 519 kts 129°
2026-05-05 21:24 -10.96761 110.03296 34899 ft 519 kts 129°
2026-05-05 21:25 -11.01126 110.09150 34898 ft 519 kts 129°
2026-05-05 21:25 -11.05485 110.15000 34898 ft 519 kts 129°
2026-05-05 21:26 -11.09850 110.20861 34899 ft 519 kts 129°
2026-05-05 21:26 -11.14223 110.26734 34898 ft 519 kts 129°
2026-05-05 21:27 -11.18562 110.32567 34902 ft 519 kts 130°
2026-05-05 21:27 -11.22930 110.38441 34899 ft 519 kts 129°
2026-05-05 21:28 -11.27270 110.44281 34900 ft 519 kts 129°
2026-05-05 21:28 -11.31623 110.50142 34900 ft 519 kts 129°
2026-05-05 21:29 -11.35978 110.56009 34902 ft 519 kts 130°
2026-05-05 21:29 -11.40337 110.61885 34903 ft 519 kts 130°
2026-05-05 21:30 -11.44666 110.67723 34905 ft 519 kts 130°
2026-05-05 21:30 -11.49031 110.73614 34903 ft 519 kts 130°
2026-05-05 21:31 -11.53390 110.79499 34904 ft 519 kts 130°
2026-05-05 21:31 -11.57715 110.85343 34909 ft 519 kts 130°
2026-05-05 21:32 -11.62071 110.91231 34907 ft 519 kts 130°
2026-05-05 21:32 -11.66423 110.97119 34905 ft 520 kts 130°
2026-05-05 21:33 -11.70755 111.02981 34908 ft 520 kts 130°
2026-05-05 21:33 -11.75108 111.08876 34909 ft 520 kts 130°
2026-05-05 21:34 -11.79462 111.14776 34905 ft 520 kts 130°
2026-05-05 21:34 -11.83819 111.20683 34909 ft 520 kts 130°
2026-05-05 21:35 -11.88173 111.26590 34908 ft 521 kts 130°
2026-05-05 21:35 -11.92530 111.32506 34911 ft 521 kts 130°
2026-05-05 21:36 -11.96863 111.38390 34915 ft 521 kts 130°
2026-05-05 21:36 -12.01612 111.43919 34921 ft 515 kts 142°
2026-05-05 21:37 -12.06153 111.47923 34914 ft 514 kts 143°
2026-05-05 21:37 -12.11636 111.52541 34914 ft 514 kts 144°
2026-05-05 21:38 -12.17173 111.57177 34915 ft 514 kts 144°
2026-05-05 21:38 -12.22693 111.61827 34916 ft 514 kts 144°
2026-05-05 21:39 -12.28214 111.66496 34919 ft 514 kts 144°
2026-05-05 21:39 -12.33723 111.71162 34914 ft 514 kts 144°
2026-05-05 21:40 -12.39193 111.75796 34920 ft 514 kts 144°
2026-05-05 21:40 -12.44711 111.80473 34921 ft 514 kts 144°
2026-05-05 21:41 -12.50214 111.85139 34919 ft 514 kts 144°
2026-05-05 21:41 -12.55690 111.89785 34921 ft 513 kts 144°
2026-05-05 21:42 -12.61182 111.94448 34923 ft 513 kts 144°
2026-05-05 21:42 -12.66686 111.99123 34922 ft 513 kts 144°
2026-05-05 21:43 -12.72194 112.03805 34924 ft 513 kts 144°
2026-05-05 21:43 -12.77686 112.08475 34926 ft 513 kts 144°
2026-05-05 21:44 -12.83148 112.13123 34925 ft 513 kts 144°
2026-05-05 21:44 -12.88636 112.17795 34927 ft 513 kts 144°
2026-05-05 21:45 -12.94123 112.22470 34927 ft 513 kts 144°
2026-05-05 21:45 -12.99616 112.27152 34929 ft 513 kts 144°
2026-05-05 21:46 -13.05103 112.31832 34927 ft 512 kts 144°
2026-05-05 21:46 -13.10551 112.36482 34932 ft 512 kts 144°
2026-05-05 21:47 -13.16037 112.41166 34931 ft 512 kts 144°
2026-05-05 21:47 -13.21517 112.45849 34935 ft 512 kts 144°
2026-05-05 21:48 -13.27002 112.50539 34931 ft 512 kts 144°
2026-05-05 21:48 -13.32485 112.55229 34934 ft 512 kts 144°
2026-05-05 21:49 -13.37954 112.59911 34934 ft 512 kts 144°
2026-05-05 21:49 -13.43411 112.64585 34936 ft 512 kts 144°
2026-05-05 21:50 -13.48886 112.69277 34936 ft 512 kts 144°
2026-05-05 21:50 -13.54367 112.73977 34936 ft 513 kts 144°
2026-05-05 21:51 -13.59849 112.78682 34939 ft 513 kts 144°
2026-05-05 21:51 -13.65327 112.83386 34939 ft 513 kts 144°
2026-05-05 21:52 -13.73516 112.90423 34941 ft 513 kts 144°
2026-05-05 21:53 -13.79000 112.95139 34942 ft 514 kts 144°
2026-05-05 21:53 -13.84484 112.99859 34946 ft 514 kts 144°
2026-05-05 21:54 -13.89969 113.04581 34945 ft 514 kts 144°
2026-05-05 21:54 -13.95460 113.09312 34948 ft 515 kts 144°
2026-05-05 21:55 -14.00971 113.14064 34947 ft 515 kts 144°
2026-05-05 21:55 -14.06474 113.18812 34945 ft 516 kts 144°
2026-05-05 21:56 -14.11953 113.23542 34952 ft 516 kts 144°
2026-05-05 21:56 -14.17451 113.28292 34955 ft 517 kts 144°
2026-05-05 21:57 -14.22968 113.33062 34953 ft 517 kts 144°
2026-05-05 21:57 -14.28483 113.37833 34950 ft 517 kts 144°
2026-05-05 21:58 -14.34001 113.42609 34950 ft 517 kts 145°
2026-05-05 21:58 -14.39483 113.47358 34950 ft 517 kts 145°
2026-05-05 21:59 -14.44996 113.52137 34955 ft 517 kts 145°
2026-05-05 21:59 -14.50497 113.56908 34955 ft 517 kts 145°
2026-05-05 22:00 -14.56007 113.61691 34958 ft 517 kts 145°
2026-05-05 22:00 -14.61507 113.66467 34958 ft 517 kts 145°
2026-05-05 22:01 -14.67026 113.71264 34968 ft 517 kts 145°
2026-05-05 22:01 -14.72522 113.76044 34965 ft 517 kts 145°
2026-05-05 22:02 -14.78027 113.80835 34956 ft 516 kts 145°
2026-05-05 22:02 -14.83516 113.85615 34959 ft 516 kts 145°
2026-05-05 22:03 -14.88971 113.90369 34963 ft 516 kts 145°
2026-05-05 22:03 -14.94470 113.95165 34962 ft 516 kts 145°
2026-05-05 22:04 -14.99961 113.99956 34965 ft 516 kts 146°
2026-05-05 22:04 -15.05346 114.04925 34966 ft 521 kts 142°
2026-05-05 22:05 -15.10589 114.10088 34971 ft 520 kts 142°
2026-05-05 22:05 -15.15807 114.15207 34968 ft 519 kts 142°
2026-05-05 22:06 -15.21087 114.20326 34968 ft 519 kts 143°
2026-05-05 22:06 -15.26378 114.25433 34966 ft 519 kts 143°
2026-05-05 22:07 -15.31673 114.30545 34966 ft 520 kts 143°
2026-05-05 22:07 -15.36973 114.35669 34972 ft 520 kts 143°
2026-05-05 22:08 -15.42226 114.40753 34972 ft 520 kts 143°
2026-05-05 22:08 -15.47509 114.45870 34976 ft 520 kts 143°
2026-05-05 22:09 -15.52805 114.51003 34979 ft 520 kts 143°
2026-05-05 22:09 -15.58085 114.56124 34979 ft 521 kts 143°
2026-05-05 22:10 -15.63383 114.61267 34981 ft 521 kts 143°
2026-05-05 22:10 -15.68676 114.66408 34981 ft 521 kts 143°
2026-05-05 22:11 -15.73975 114.71559 34983 ft 521 kts 143°
2026-05-05 22:11 -15.79249 114.76690 34981 ft 522 kts 143°
2026-05-05 22:12 -15.84555 114.81856 34981 ft 522 kts 143°
2026-05-05 22:12 -15.89863 114.87027 34980 ft 523 kts 143°
2026-05-05 22:13 -15.95138 114.92170 34979 ft 523 kts 143°
2026-05-05 22:13 -16.00453 114.97356 34981 ft 524 kts 143°
2026-05-05 22:14 -16.05768 115.02547 34982 ft 524 kts 143°
2026-05-05 22:14 -16.11072 115.07731 34993 ft 524 kts 143°
2026-05-05 22:15 -16.16399 115.12940 34991 ft 524 kts 143°
2026-05-05 22:15 -16.21676 115.18105 34989 ft 525 kts 143°
2026-05-05 22:16 -16.27003 115.23324 34990 ft 525 kts 143°
2026-05-05 22:16 -16.32326 115.28542 34991 ft 525 kts 143°
2026-05-05 22:17 -16.37649 115.33764 34992 ft 525 kts 143°
2026-05-05 22:17 -16.42969 115.38987 34991 ft 526 kts 143°
2026-05-05 22:18 -16.48265 115.44192 34997 ft 526 kts 143°
2026-05-05 22:18 -16.53601 115.49439 34990 ft 526 kts 143°
2026-05-05 22:19 -16.58932 115.54686 34996 ft 526 kts 143°
2026-05-05 22:19 -16.64228 115.59902 34997 ft 527 kts 143°
2026-05-05 22:20 -16.69557 115.65156 34988 ft 527 kts 143°
2026-05-05 22:20 -16.74890 115.70417 34992 ft 527 kts 143°
2026-05-05 22:21 -16.80224 115.75684 34998 ft 527 kts 143°
2026-05-05 22:21 -16.85519 115.80916 34990 ft 527 kts 143°
2026-05-05 22:22 -16.90851 115.86190 35003 ft 527 kts 143°
2026-05-05 22:22 -16.96183 115.91468 35000 ft 527 kts 143°
2026-05-05 22:23 -17.00609 115.95851 35002 ft 527 kts 143°
2026-05-05 22:23 -17.05930 116.01126 35002 ft 527 kts 143°
2026-05-05 22:24 -17.11257 116.06411 35000 ft 528 kts 143°
2026-05-05 22:24 -17.16585 116.11701 35007 ft 528 kts 143°
2026-05-05 22:25 -17.21908 116.16991 35004 ft 528 kts 143°
2026-05-05 22:25 -17.27209 116.22263 35003 ft 528 kts 143°
2026-05-05 22:26 -17.32537 116.27567 35005 ft 528 kts 143°
2026-05-05 22:26 -17.37866 116.32875 35009 ft 529 kts 143°
2026-05-05 22:27 -17.43202 116.38195 35009 ft 529 kts 143°
2026-05-05 22:27 -17.48500 116.43483 35006 ft 529 kts 143°
2026-05-05 22:28 -17.53843 116.48819 35011 ft 530 kts 143°
2026-05-05 22:28 -17.59173 116.54147 35009 ft 530 kts 143°
2026-05-05 22:29 -17.64507 116.59484 35009 ft 530 kts 143°
2026-05-05 22:29 -17.69857 116.64842 35008 ft 530 kts 143°
2026-05-05 22:30 -17.75161 116.70157 35011 ft 531 kts 143°
2026-05-05 22:30 -17.80509 116.75522 35013 ft 531 kts 143°
2026-05-05 22:31 -17.85845 116.80879 35014 ft 531 kts 144°
2026-05-05 22:31 -17.91190 116.86251 35015 ft 531 kts 144°
2026-05-05 22:32 -17.96536 116.91628 35014 ft 531 kts 144°
2026-05-05 22:32 -18.01867 116.96994 35015 ft 532 kts 144°
2026-05-05 22:33 -18.07212 117.02379 35015 ft 532 kts 144°
2026-05-05 22:33 -18.12550 117.07761 35019 ft 532 kts 144°
2026-05-05 22:34 -18.17891 117.13152 35020 ft 532 kts 144°
2026-05-05 22:34 -18.23231 117.18547 35019 ft 533 kts 144°
2026-05-05 22:35 -18.28547 117.23922 35020 ft 533 kts 144°
2026-05-05 22:35 -18.33895 117.29334 35018 ft 533 kts 144°
2026-05-05 22:36 -18.39233 117.34741 35020 ft 533 kts 144°
2026-05-05 22:36 -18.44588 117.40171 35024 ft 533 kts 144°
2026-05-05 22:37 -18.49928 117.45590 35025 ft 533 kts 144°
2026-05-05 22:37 -18.55275 117.51021 35022 ft 533 kts 144°
2026-05-05 22:38 -18.60596 117.56430 35021 ft 534 kts 144°
2026-05-05 22:38 -18.65930 117.61858 35029 ft 534 kts 144°
2026-05-05 22:39 -18.71283 117.67311 35023 ft 534 kts 144°
2026-05-05 22:39 -18.76635 117.72767 35029 ft 534 kts 144°
2026-05-05 22:40 -18.81941 117.78181 35030 ft 534 kts 144°
2026-05-05 22:40 -18.87296 117.83650 35029 ft 534 kts 144°
2026-05-05 22:41 -18.92638 117.89112 35032 ft 534 kts 144°
2026-05-05 22:41 -18.97978 117.94576 35032 ft 535 kts 144°
2026-05-05 22:42 -19.03337 118.00065 35038 ft 535 kts 144°
2026-05-05 22:42 -19.08679 118.05541 35037 ft 535 kts 144°
2026-05-05 22:43 -19.14010 118.11017 35040 ft 532 kts 144°
2026-05-05 22:43 -19.19274 118.16427 35042 ft 530 kts 144°
2026-05-05 22:44 -19.24576 118.21873 35041 ft 530 kts 144°
2026-05-05 22:44 -19.29863 118.27311 35047 ft 530 kts 144°
2026-05-05 22:45 -19.35163 118.32768 35046 ft 531 kts 144°
2026-05-05 22:45 -19.40424 118.38193 35045 ft 531 kts 144°
2026-05-05 22:46 -19.45712 118.43650 35052 ft 531 kts 144°
2026-05-05 22:46 -19.51005 118.49119 35053 ft 531 kts 144°
2026-05-05 22:47 -19.56293 118.54586 35052 ft 531 kts 144°
2026-05-05 22:47 -19.61600 118.60080 35055 ft 531 kts 144°
2026-05-05 22:48 -19.66890 118.65560 35058 ft 532 kts 145°
2026-05-05 22:48 -19.72186 118.71052 35060 ft 532 kts 145°
2026-05-05 22:49 -19.77477 118.76545 35053 ft 532 kts 145°
2026-05-05 22:49 -19.82737 118.82011 35060 ft 532 kts 145°
2026-05-05 22:50 -19.88035 118.87521 35059 ft 533 kts 145°
2026-05-05 22:50 -19.93329 118.93032 35060 ft 533 kts 145°
2026-05-05 22:51 -19.98633 118.98561 35066 ft 533 kts 145°
2026-05-05 22:51 -20.03962 119.04034 35064 ft 531 kts 146°
2026-05-05 22:52 -20.09384 119.09369 35064 ft 531 kts 147°
2026-05-05 22:52 -20.14777 119.14664 35063 ft 531 kts 147°
2026-05-05 22:53 -20.20199 119.20030 35063 ft 532 kts 146°
2026-05-05 22:53 -20.25606 119.25409 35067 ft 532 kts 146°
2026-05-05 22:54 -20.31034 119.30818 35069 ft 533 kts 146°
2026-05-05 22:54 -20.36442 119.36210 35069 ft 533 kts 146°
2026-05-05 22:55 -20.41833 119.41591 35069 ft 533 kts 146°
2026-05-05 22:55 -20.47253 119.47004 35071 ft 534 kts 146°
2026-05-05 22:56 -20.52673 119.52423 35073 ft 534 kts 146°
2026-05-05 22:56 -20.58093 119.57849 35076 ft 534 kts 146°
2026-05-05 22:57 -20.63490 119.63256 35076 ft 535 kts 146°
2026-05-05 22:57 -20.68908 119.68690 35077 ft 535 kts 146°
2026-05-05 22:58 -20.74346 119.74151 35082 ft 535 kts 146°
2026-05-05 22:58 -20.79771 119.79603 35081 ft 536 kts 146°
2026-05-05 22:59 -20.85217 119.85083 35085 ft 536 kts 146°
2026-05-05 22:59 -20.90611 119.90514 35084 ft 537 kts 146°
2026-05-05 23:00 -20.98772 119.98745 35091 ft 537 kts 146°
2026-05-05 23:00 -21.04089 120.04432 35091 ft 544 kts 141°
2026-05-05 23:01 -21.09087 120.10561 35098 ft 547 kts 139°
2026-05-05 23:01 -21.14067 120.16716 35111 ft 546 kts 140°
2026-05-05 23:02 -21.19069 120.22769 35095 ft 546 kts 141°
2026-05-05 23:02 -21.24132 120.28834 35106 ft 546 kts 141°
2026-05-05 23:03 -21.29197 120.34896 35107 ft 546 kts 141°
2026-05-05 23:03 -21.34269 120.40978 35111 ft 547 kts 140°
2026-05-05 23:04 -21.39350 120.47079 35114 ft 547 kts 140°
2026-05-05 23:04 -21.44422 120.53181 35122 ft 547 kts 140°
2026-05-05 23:05 -21.49462 120.59249 35120 ft 547 kts 140°
2026-05-05 23:05 -21.54526 120.65355 35121 ft 547 kts 140°
2026-05-05 23:06 -21.59580 120.71455 35127 ft 547 kts 140°
2026-05-05 23:06 -21.64648 120.77579 35129 ft 547 kts 140°
2026-05-05 23:07 -21.69713 120.83705 35132 ft 548 kts 140°
2026-05-05 23:07 -21.74758 120.89815 35136 ft 547 kts 140°
2026-05-05 23:08 -21.79795 120.95923 35127 ft 548 kts 140°
2026-05-05 23:08 -21.84856 121.02067 35147 ft 548 kts 140°
2026-05-05 23:09 -21.89059 121.07174 35133 ft 547 kts 140°
2026-05-05 23:09 -21.94112 121.13319 35143 ft 548 kts 140°
2026-05-05 23:10 -21.99160 121.19467 35142 ft 547 kts 140°
2026-05-05 23:10 -22.04208 121.25623 35146 ft 547 kts 140°
2026-05-05 23:11 -22.09248 121.31776 35141 ft 547 kts 140°
2026-05-05 23:11 -22.14259 121.37899 35148 ft 547 kts 139°
2026-05-05 23:12 -22.19290 121.44055 35148 ft 547 kts 139°
2026-05-05 23:12 -22.24323 121.50221 35152 ft 547 kts 139°
2026-05-05 23:13 -22.29346 121.56381 35157 ft 547 kts 139°
2026-05-05 23:13 -22.34376 121.62557 35160 ft 547 kts 139°
2026-05-05 23:14 -22.39397 121.68729 35160 ft 546 kts 139°
2026-05-05 23:14 -22.44413 121.74904 35168 ft 546 kts 139°
2026-05-05 23:15 -22.49422 121.81077 35169 ft 546 kts 139°
2026-05-05 23:15 -22.54425 121.87250 35174 ft 545 kts 139°
2026-05-05 23:16 -22.59421 121.93420 35183 ft 545 kts 139°
2026-05-05 23:16 -22.64385 121.99560 35182 ft 545 kts 139°
2026-05-05 23:17 -22.69377 122.05741 35177 ft 544 kts 138°
2026-05-05 23:17 -22.74364 122.11923 35182 ft 544 kts 138°
2026-05-05 23:18 -22.79344 122.18104 35184 ft 544 kts 138°
2026-05-05 23:18 -22.84316 122.24283 35180 ft 543 kts 138°
2026-05-05 23:19 -22.89282 122.30462 35194 ft 543 kts 138°
2026-05-05 23:19 -22.94212 122.36602 35178 ft 543 kts 138°
2026-05-05 23:20 -22.99167 122.42783 35191 ft 542 kts 138°
2026-05-05 23:20 -23.04123 122.48970 35193 ft 541 kts 138°
2026-05-05 23:21 -23.09028 122.55104 35195 ft 541 kts 137°
2026-05-05 23:21 -23.13961 122.61280 35196 ft 541 kts 137°
2026-05-05 23:22 -23.18896 122.67465 35198 ft 540 kts 137°
2026-05-05 23:22 -23.23817 122.73639 35199 ft 540 kts 137°
2026-05-05 23:23 -23.28733 122.79816 35202 ft 540 kts 137°
2026-05-05 23:23 -23.33612 122.85953 35205 ft 539 kts 137°
2026-05-05 23:24 -23.38523 122.92136 35208 ft 538 kts 137°
2026-05-05 23:24 -23.43417 122.98308 35208 ft 538 kts 137°
2026-05-05 23:25 -23.48305 123.04480 35216 ft 538 kts 137°
2026-05-05 23:25 -23.53183 123.10649 35212 ft 537 kts 136°
2026-05-05 23:26 -23.58060 123.16821 35217 ft 536 kts 136°
2026-05-05 23:26 -23.62895 123.22949 35215 ft 536 kts 136°
2026-05-05 23:27 -23.67745 123.29104 35218 ft 535 kts 136°
2026-05-05 23:27 -23.72598 123.35269 35221 ft 534 kts 136°
2026-05-05 23:28 -23.77439 123.41427 35222 ft 534 kts 136°
2026-05-05 23:28 -23.82237 123.47536 35227 ft 533 kts 136°
2026-05-05 23:29 -23.87091 123.53725 35229 ft 532 kts 136°
2026-05-05 23:29 -23.91915 123.59884 35230 ft 531 kts 135°
2026-05-05 23:30 -23.96684 123.65981 35239 ft 530 kts 135°
2026-05-05 23:30 -24.01465 123.72100 35247 ft 529 kts 135°
2026-05-05 23:31 -24.06252 123.78235 35239 ft 528 kts 135°
2026-05-05 23:31 -24.11018 123.84350 35239 ft 528 kts 135°
2026-05-05 23:32 -24.15785 123.90476 35250 ft 527 kts 135°
2026-05-05 23:32 -24.20499 123.96540 35247 ft 526 kts 135°
2026-05-05 23:33 -24.25240 124.02646 35255 ft 525 kts 135°
2026-05-05 23:33 -24.29966 124.08740 35256 ft 524 kts 135°
2026-05-05 23:34 -24.34684 124.14832 35259 ft 523 kts 134°
2026-05-05 23:34 -24.39390 124.20917 35263 ft 522 kts 134°
2026-05-05 23:35 -24.44084 124.26995 35261 ft 521 kts 134°
2026-05-05 23:35 -24.48765 124.33061 35268 ft 520 kts 134°
2026-05-05 23:36 -24.53435 124.39121 35270 ft 519 kts 134°
2026-05-05 23:36 -24.58059 124.45131 35269 ft 518 kts 134°
2026-05-05 23:37 -24.62704 124.51175 35270 ft 517 kts 134°
2026-05-05 23:37 -24.67336 124.57208 35275 ft 516 kts 134°
2026-05-05 23:38 -24.71963 124.63243 35276 ft 515 kts 134°
2026-05-05 23:38 -24.76576 124.69268 35280 ft 514 kts 133°
2026-05-05 23:39 -24.81152 124.75252 35283 ft 513 kts 133°
2026-05-05 23:39 -24.85746 124.81267 35286 ft 512 kts 133°
2026-05-05 23:40 -24.90326 124.87272 35288 ft 512 kts 133°
2026-05-05 23:40 -24.94880 124.93249 35292 ft 511 kts 133°
2026-05-05 23:41 -24.99435 124.99275 35291 ft 512 kts 131°
2026-05-05 23:41 -25.03623 125.05665 35296 ft 512 kts 128°
2026-05-05 23:42 -25.07697 125.12107 35299 ft 512 kts 127°
2026-05-05 23:42 -25.11730 125.18527 35298 ft 512 kts 127°
2026-05-05 23:43 -25.15791 125.24984 35299 ft 512 kts 127°
2026-05-05 23:43 -25.19846 125.31430 35304 ft 511 kts 127°
2026-05-05 23:44 -25.23911 125.37895 35305 ft 511 kts 127°
2026-05-05 23:44 -25.27962 125.44350 35306 ft 511 kts 127°
2026-05-05 23:45 -25.31982 125.50763 35309 ft 510 kts 127°
2026-05-05 23:45 -25.36024 125.57221 35309 ft 510 kts 127°
2026-05-05 23:46 -25.40066 125.63687 35311 ft 510 kts 127°
2026-05-05 23:46 -25.44070 125.70101 35307 ft 510 kts 127°
2026-05-05 23:47 -25.48100 125.76564 35314 ft 510 kts 127°
2026-05-05 23:47 -25.52138 125.83053 35312 ft 510 kts 127°
2026-05-05 23:48 -25.56162 125.89526 35316 ft 510 kts 127°
2026-05-05 23:48 -25.60152 125.95952 35319 ft 510 kts 127°
2026-05-05 23:49 -25.64166 126.02427 35320 ft 509 kts 127°
2026-05-05 23:49 -25.68186 126.08920 35324 ft 509 kts 127°
2026-05-05 23:50 -25.72189 126.15395 35325 ft 509 kts 127°
2026-05-05 23:50 -25.76198 126.21887 35328 ft 509 kts 127°
2026-05-05 23:51 -25.80174 126.28337 35328 ft 509 kts 127°
2026-05-05 23:51 -25.84172 126.34831 35331 ft 509 kts 127°
2026-05-05 23:52 -25.88150 126.41301 35333 ft 509 kts 126°
2026-05-05 23:52 -25.92161 126.47834 35334 ft 509 kts 126°
2026-05-05 23:53 -25.96117 126.54287 35337 ft 509 kts 126°
2026-05-05 23:53 -26.00103 126.60798 35337 ft 509 kts 126°
2026-05-05 23:54 -26.04083 126.67306 35340 ft 509 kts 126°
2026-05-05 23:54 -26.08062 126.73825 35341 ft 509 kts 126°
2026-05-05 23:55 -26.12033 126.80340 35345 ft 509 kts 126°
2026-05-05 23:55 -26.15989 126.86837 35346 ft 508 kts 126°
2026-05-05 23:56 -26.19955 126.93361 35349 ft 508 kts 126°
2026-05-05 23:56 -26.23913 126.99881 35349 ft 508 kts 126°
2026-05-05 23:57 -26.27211 127.05320 35351 ft 508 kts 126°
2026-05-05 23:57 -26.31804 127.12908 35352 ft 508 kts 126°
2026-05-05 23:58 -26.35759 127.19450 35352 ft 508 kts 126°
2026-05-05 23:58 -26.39066 127.24928 35355 ft 508 kts 126°
2026-05-05 23:59 -26.42994 127.31443 35355 ft 508 kts 126°
2026-05-05 23:59 -26.46938 127.37994 35359 ft 508 kts 126°
2026-05-06 00:00 -26.50873 127.44540 35360 ft 508 kts 126°
2026-05-06 00:00 -26.54803 127.51087 35360 ft 507 kts 126°
2026-05-06 00:01 -26.58732 127.57643 35349 ft 507 kts 126°
2026-05-06 00:01 -26.62630 127.64154 35350 ft 507 kts 126°
2026-05-06 00:02 -26.66555 127.70722 35369 ft 507 kts 126°
2026-05-06 00:02 -26.70481 127.77301 35365 ft 507 kts 126°
2026-05-06 00:03 -26.74375 127.83834 35378 ft 507 kts 126°
2026-05-06 00:03 -26.78292 127.90416 35368 ft 508 kts 126°
2026-05-06 00:04 -26.82211 127.97013 35359 ft 508 kts 126°
2026-05-06 00:04 -26.86128 128.03614 35363 ft 508 kts 126°
2026-05-06 00:05 -26.91961 128.13462 35369 ft 508 kts 126°
2026-05-06 00:06 -26.95868 128.20072 35373 ft 508 kts 126°
2026-05-06 00:06 -26.99774 128.26690 35378 ft 508 kts 125°
2026-05-06 00:07 -27.03677 128.33313 35372 ft 509 kts 125°
2026-05-06 00:07 -27.07583 128.39950 35374 ft 509 kts 126°
2026-05-06 00:08 -27.11486 128.46591 35372 ft 509 kts 125°
2026-05-06 00:08 -27.15365 128.53202 35377 ft 509 kts 125°
2026-05-06 00:09 -27.19260 128.59850 35376 ft 510 kts 125°
2026-05-06 00:09 -27.23157 128.66512 35378 ft 510 kts 125°
2026-05-06 00:10 -27.27053 128.73182 35384 ft 510 kts 125°
2026-05-06 00:10 -27.30945 128.79856 35379 ft 510 kts 125°
2026-05-06 00:11 -27.34839 128.86542 35376 ft 510 kts 125°
2026-05-06 00:11 -27.38710 128.93199 35379 ft 511 kts 125°
2026-05-06 00:12 -27.42595 128.99891 35378 ft 511 kts 125°
2026-05-06 00:12 -27.46483 129.06597 35375 ft 511 kts 125°
2026-05-06 00:13 -27.50348 129.13275 35376 ft 511 kts 125°
2026-05-06 00:13 -27.54227 129.19986 35376 ft 511 kts 125°
2026-05-06 00:14 -27.58109 129.26714 35373 ft 511 kts 125°
2026-05-06 00:14 -27.61984 129.33440 35379 ft 512 kts 125°
2026-05-06 00:15 -27.65866 129.40188 35378 ft 512 kts 125°
2026-05-06 00:15 -27.69712 129.46885 35376 ft 512 kts 125°
2026-05-06 00:16 -27.73576 129.53623 35375 ft 512 kts 125°
2026-05-06 00:16 -27.77443 129.60375 35379 ft 512 kts 125°
2026-05-06 00:17 -27.81312 129.67142 35380 ft 512 kts 125°
2026-05-06 00:17 -27.85172 129.73905 35382 ft 512 kts 125°
2026-05-06 00:18 -27.89036 129.80685 35383 ft 512 kts 125°
2026-05-06 00:18 -27.92897 129.87469 35380 ft 512 kts 125°
2026-05-06 00:19 -27.96735 129.94226 35385 ft 512 kts 125°
2026-05-06 00:19 -28.00424 130.01123 35389 ft 514 kts 119°
2026-05-06 00:20 -28.03618 130.08392 35381 ft 515 kts 118°
2026-05-06 00:20 -28.06715 130.15699 35383 ft 515 kts 117°
2026-05-06 00:21 -28.09809 130.23035 35384 ft 515 kts 117°
2026-05-06 00:21 -28.12902 130.30354 35385 ft 515 kts 117°
2026-05-06 00:22 -28.15978 130.37632 35385 ft 515 kts 117°
2026-05-06 00:22 -28.19093 130.45013 35387 ft 515 kts 117°
2026-05-06 00:23 -28.22182 130.52345 35388 ft 516 kts 117°
2026-05-06 00:23 -28.25274 130.59699 35383 ft 516 kts 117°
2026-05-06 00:24 -28.28334 130.66993 35386 ft 516 kts 117°
2026-05-06 00:24 -28.31414 130.74346 35383 ft 516 kts 117°
2026-05-06 00:25 -28.34490 130.81702 35373 ft 516 kts 117°
2026-05-06 00:25 -28.37570 130.89082 35389 ft 516 kts 117°
2026-05-06 00:26 -28.40622 130.96410 35377 ft 516 kts 117°
2026-05-06 00:26 -28.43691 131.03791 35383 ft 516 kts 117°
2026-05-06 00:27 -28.46755 131.11174 35385 ft 516 kts 117°
2026-05-06 00:27 -28.49820 131.18574 35396 ft 516 kts 117°
2026-05-06 00:28 -28.52873 131.25958 35380 ft 516 kts 117°
2026-05-06 00:28 -28.55922 131.33348 35387 ft 516 kts 117°
2026-05-06 00:29 -28.58949 131.40699 35386 ft 516 kts 117°
2026-05-06 00:29 -28.61995 131.48106 35385 ft 516 kts 117°
2026-05-06 00:30 -28.65032 131.55510 35385 ft 516 kts 117°